Regional Weather Roundup
Issued by NWS

Home | Current Version | Previous Version | Text Only | Print | Product List | Glossary Off
Versions: 1 2 3 4 5 6 7 8 9 10 11 12 13 14 15 16 17 18 19 20 21 22 23 24 25 26 27 28 29 30 31 32 33 34 35 36 37 38 39 40 41 42 43 44 45 46 47 48 49 50

156
ASUS45 KBOU 240307
RWRCO

WEATHER ROUNDUP FOR COLORADO
NATIONAL WEATHER SERVICE DENVER/BOULDER CO
900 PM MDT MON MAY 23 2016

NOTE: "FAIR" INDICATES FEW OR NO CLOUDS BELOW 12000 FEET WITH NO
SIGNIFICANT WEATHER AND/OR OBSTRUCTIONS TO VISIBILITY.

COZ001>005-013-030-031-240400-
...NORTHWEST COLORADO...

CITY           SKY/WX    TMP DP  RH WIND       PRES   REMARKS
CRAIG          FAIR      54  35  48 CALM      29.91R
HAYDEN         FAIR      52  28  40 CALM      29.93R
MEEKER         FAIR      54  39  57 W3        29.91R
MOUNT WERNER   NOT AVBL
STEAMBOAT SPGS FAIR      53  29  41 CALM      29.94S
WALDEN         FAIR      46  23  39 CALM      30.02S
$$

COZ006>008-011-240400-
...WEST CENTRAL VALLEYS...

CITY           SKY/WX    TMP DP  RH WIND       PRES   REMARKS
GRAND JUNCTION FAIR      61  21  21 N6        29.82R
MONTROSE       FAIR      62  17  17 W5        29.89R
EAGLE          FAIR      55  27  33 E5        29.94R
RIFLE          FAIR      59  27  29 NE5       29.86R
DELTA          FAIR      68  11  11 W5        29.85R
NUCLA          FAIR      61  12  15 W7        29.92S
$$

COZ017>023-064>068-240400-
...SOUTHWEST COLORADO...

CITY           SKY/WX    TMP DP  RH WIND       PRES   REMARKS
DURANGO        FAIR      59  18  20 CALM      29.94R
CORTEZ         FAIR      51  28  41 S5        29.89R
PAGOSA SPRINGS FAIR      49  29  44 CALM      30.00S
TELLURIDE      FAIR      53  10  18 SE5       30.08R
WOLF CREEK PAS FAIR      34  18  51 SW20G26   30.24R WCI  22
$$

COZ009-010-012-014-032>034-037-058>063-240400-
...CENTRAL COLORADO...

CITY           SKY/WX    TMP DP  RH WIND       PRES   REMARKS
ASPEN          FAIR      50  26  39 S8        29.98R
BUENA VISTA    FAIR      48  19  31 W8        29.99R
COPPER MTN     NOT AVBL
BERTHOUD PASS  FAIR      32  23  69 SW7       30.22R WCI  26
COTTONWOOD PAS FAIR      52  10  19 SW8       30.10R
GUNNISON       FAIR      55  16  21 CALM      30.01R
KREMMLING      FAIR      52  27  37 N3        29.98R
LEADVILLE      FAIR      40  16  37 N3        30.08R
MONARCH PASS   MOCLDY    36  18  48 SW17      30.31R
SALIDA         NOT AVBL
SUNLIGHT       FAIR      39  27  60 CALM      30.16R
WILKERSON PASS FAIR      39  19  45 SW5       30.21R
$$

COZ069>075-240400-
...SAN LUIS VALLEY/SANGRE DE CRISTO MOUNTAINS...

CITY           SKY/WX    TMP DP  RH WIND       PRES   REMARKS
ALAMOSA        FAIR      55  23  28 NW5       29.98R
LA VETA PASS   FAIR      46  14  27 S9G20     30.12R
SAGUACHE       FAIR      50  23  34 NW3       30.01R
$$

COZ035-036-038>040-240400-
...NORTHERN COLORADO FRONT RANGE...

CITY           SKY/WX    TMP DP  RH WIND       PRES   REMARKS
DENVER INTL AP FAIR      52  43  71 NE5       29.91R
DMNS CITY PARK   N/A     56  42  58 N12       29.91S
AURORA         MOCLDY    52  44  73 NE7       29.91R
FRONT RANGE AP MOCLDY    50  43  76 NE5       29.92R
ERIE MUNI ARPT FAIR      53  44  69 CALM      29.91R
BOULDER MUN AP FAIR      55  43  62 CALM      29.91R
CENTENNIAL     MOCLDY    57  40  52 NE5       29.93R
BROOMFIELD     MOCLDY    57  43  58 CALM      29.93R
FORT COLLINS   FAIR      57  39  51 CALM      29.90S
LONGMONT       FAIR      56  43  61 CALM      29.93R
$$

COZ041-046-047-076>085-087-088-240400-
...PIKES PEAK/PALMER DIVIDE AND SOUTHERN FOOTHILLS...

CITY           SKY/WX    TMP DP  RH WIND       PRES   REMARKS
COLO. SPRINGS  FAIR      59  37  44 N13       29.92R
A. F. ACADEMY  MOCLDY    55  39  54 N10       29.95R
SCHRIEVER AFB  NOT AVBL
ELLICOTT       FAIR     N/A N/A N/A E12       29.89R
FALCON         FAIR      51  39  63 N9        29.96R
FORT CARSON    CLEAR     58  40  50 NW13      29.88R
LIMON          FAIR      51  45  79 VRB6      29.88R
MONUMENT HILL  FAIR      46  41  81 NE6       30.00R
TRINIDAD       FAIR      58  28  32 W10       29.85R
$$

COZ042>045-048>051-090-091-240400-
...NORTHEAST COLORADO...

CITY           SKY/WX    TMP DP  RH WIND       PRES   REMARKS
GREELEY ARPT   FAIR      55  41  58 NE5       29.89S
AKRON          CLOUDY    55  46  71 NE8       29.89R
BURLINGTON     FAIR      61  47  59 E10       29.84R
WRAY           FAIR      54  46  76 N7        29.86R
STERLING       FAIR      54  45  71 NE6       29.87F
HOLYOKE        FAIR      55  45  67 N8        29.89S
FORT MORGAN    CLOUDY    57  41  55 NE10      29.89R
$$

COZ086-089-092>099-240400-
...SOUTHEAST COLORADO...

CITY           SKY/WX    TMP DP  RH WIND       PRES   REMARKS
PUEBLO         FAIR      69  40  34 E9        29.78R
LA JUNTA       FAIR      74  51  44 NE13G24   29.78R
LAMAR          FAIR      70  54  56 E12       29.72S
SPRINGFIELD      N/A     64  45  49 SE13      29.77R
$$




USA.gov is the U.S. government's official web portal to all federal, state and local government web resources and services.